Location: Lewisville
(33.0462°N, 96.9942°W)
Time: 14:14:08
(UTC-06:00)

OTV 5 (USA 277) - Pass Details

Date: 21 October 2019
Orbit: 310 x 324 km, 54.5° (Epoch: 17 October)

Event Time Altitude Azimuth Distance (km) Brightness Sun altitude
Exits shadow 06:23:30 29° 341° (NNW) 624 ? -16.0°
Maximum altitude 06:24:37 55° 47° (NE) 392 ? -15.8°
Drops below altitude 10° 06:27:17 10° 126° (SE) 1,221 ? -15.3°
Sets 06:29:15 0° 131° (SE) 2,045 ? -14.8°
